Vertical_Velocity
-1 -1 0 1 -0 -1 -1 -1 -1 -0 0 0 -0 -1 -1 -1 -0 0 -1 -1 -0 -2 -0 -1 -1 -1 -1 -1 -1 -0 0 0 1 -0 0 0 0 1 0 0 0 0 0
-1 -1 -1 -0 1 -1 -0 -1 -1 -0 0 -0 0 -1 -1 -0 -0 -1 0 -0 -1 0 -1 0 -1 -1 -1 -1 -0 -1 -0 -0 0 -0 -0 0 1 1 1 0 0 -0 -0
-0 -2 -1 -1 0 -0 0 -1 -1 -1 -0 -0 0 0 0 -1 -0 -1 -1 -0 -0 -0 0 -1 1 0 -0 -2 -1 -0 -1 -1 -1 -0 0 0 -0 -0 -1 -1 -1 -0 0
-1 0 -1 -1 -1 -1 -0 -1 -0 -0 -1 -0 0 -1 -0 -0 -0 -1 -1 -1 -2 -1 -1 0 -1 -1 0 1 -0 -1 -0 0 0 -0 -1 -1 -1 -1 -1 -1 -1 -1 -1
-1 -1 -1 -1 0 -1 -1 -1 0 -1 -1 -1 -1 -1 -1 -1 -1 -2 -1 -1 -1 -0 -1 -1 0 -0 0 1 0 -0 -0 -0 0 1 0 -0 -0 -1 -0 -1 -1 -1 -0
0 -2 -0 -1 1 -0 0 -1 -0 -0 -1 -0 -0 -0 -0 1 1 0 1 1 0 1 1 -1 -1 -0 -1 1 1 0 -0 -0 -1 -0 -0 -0 1 -1 -1 -0 -0 -0 -1
1 1 -1 -1 -0 0 -1 -1 -2 -1 -1 -1 -1 -0 -0 -0 1 -0 -1 -1 -1 -0 -0 -0 -1 -2 -2 -2 -1 0 2 -1 -2 -1 -1 -0 0 0 0 0 1 0 1
0 1 1 1 0 0 0 -0 -0 -0 -1 -1 -1 -0 0 0 -1 -1 -0 -0 -0 0 0 -1 -1 0 -0 -0 -1 -0 -0 0 -0 -0 -1 -1 -1 -0 0 1 1 1 0
0 1 0 1 0 0 0 -0 -1 -1 -1 -1 -1 -1 -0 -1 -1 0 -1 -1 -2 -2 -2 -2 -1 -2 -2 -1 0 -1 -0 0 -0 1 0 0 3 -1 -1 -1 1 1 1
1 1 0 0 1 0 0 -0 -1 -0 -1 -1 -1 -0 -0 -1 -1 -3 -1 -2 0 -1 -0 -1 -1 -2 -1 -2 -1 -1 -1 -2 -1 -1 -0 -0 0 -0 -0 -1 -0 -3 -2
0 1 2 0 -0 0 -0 -0 -1 -1 -1 -0 -2 -1 -2 -1 -1 -0 -2 -1 -1 -1 -1 -1 -1 -2 -1 -2 -2 -2 -0 -1 0 0 -2 0 -0 -2 1 2 0 1 -0
-0 1 2 1 0 1 1 -0 -1 -1 -0 -2 -0 -0 -2 -0 -1 -1 0 -1 0 -1 0 -2 -1 0 -0 -1 -1 -0 -2 -0 1 1 -0 2 1 -1 0 0 0 1 1
0 1 1 0 -0 1 -1 1 -0 -0 -2 1 -2 -2 -2 -1 -2 -0 -1 -0 -3 -2 -4 -2 -2 -3 -3 -1 -1 -1 1 -2 -1 0 -1 5 -4 3 1 -0 -1 1 -0
1 2 1 -0 -1 0 -1 0 -1 -1 3 -4 -1 -2 -2 -2 -1 -2 -1 -1 -3 -2 -2 -2 -3 -3 -2 -1 -1 -1 -2 -0 -0 0 -2 5 5 -3 3 1 2 1 -0
1 1 2 -0 -1 -1 3 0 1 3 -2 0 -2 -2 -3 -2 -2 -2 -2 -2 -3 -2 -1 -1 0 -2 -3 -2 -3 -1 0 0 1 -1 -0 2 2 0 3 2 2 1 -0
-0 1 1 -0 2 -1 1 1 -3 -3 -1 -1 -1 -2 -1 -0 -1 -2 -1 -2 -2 -1 -1 -2 -1 -2 -3 -3 -0 -0 0 3 1 1 1 -6 4 -2 2 2 0 1 1
-0 1 -0 1 0 1 0 0 0 1 -1 -2 -1 -2 -2 -1 -1 -1 -1 -1 0 -1 -1 -2 -4 -4 -2 -1 0 0 -0 0 2 1 -1 0 0 1 1 -0 1 -1 -1
2 1 -1 -2 0 0 0 0 -0 -1 -1 -2 -3 -2 -1 -1 -2 -2 -2 -1 -1 -1 -1 -3 -3 -1 -1 -2 -2 1 2 1 -2 -2 3 2 2 -2 2 -4 -2 1 0
1 -0 -1 -1 -0 1 1 -0 -2 -2 -0 -1 -1 -1 -3 -1 -2 -1 -2 -2 -3 -2 -2 -3 -4 -1 -2 -5 -5 -1 2 3 2 0 0 2 -0 -2 -1 -1 3 -3 1
-1 -0 -0 -0 1 1 -1 -2 -1 -1 -2 -3 -2 -1 2 -0 -2 -2 -2 -1 -2 -2 -2 -2 -1 -4 -1 -6 -7 -7 -4 6 1 1 1 0 -1 -1 -0 -0 -0 -1 0
0 -1 -0 2 -1 -2 -3 -2 -3 -2 -1 -0 -0 -0 -0 -1 -1 -1 -1 -0 -2 -1 -2 -1 -1 -2 -2 -2 -5 -3 -0 -1 10 3 1 0 -1 0 -1 -0 -1 0 -2
-0 -1 -2 -4 -3 -1 -1 -2 -2 -2 -1 -1 -2 -1 -0 0 0 -1 -1 -0 -1 -0 -1 -2 -2 -2 -1 -2 -4 -4 0 -1 1 3 2 1 -1 0 -0 0 -0 -0 -1
-0 -2 -2 -1 -1 -1 -3 -2 -1 -0 -1 -1 -2 -2 -1 -0 -1 -1 -1 -1 1 -1 -0 -1 -0 0 -3 -3 -3 -3 -3 -0 1 4 3 2 2 0 1 -0 -1 -1 0
-2 -2 -2 -1 0 -1 -2 -1 -1 -1 -0 -1 -3 -2 -1 0 1 2 1 -0 1 0 -0 0 2 0 -2 -1 -3 -3 -3 -0 0 2 2 1 0 -0 1 1 -1 -1 1
-2 -2 -1 -1 -1 -2 0 1 -0 -2 1 -4 -3 0 -3 -2 -2 -1 1 -1 -2 -1 -1 -0 2 -0 -1 1 -1 -1 -2 -2 -0 0 -1 1 2 0 -0 1 -1 -1 1
1 -0 -3 -1 2 1 0 -0 -1 -1 -1 -1 -2 -3 -5 -3 2 3 2 -0 -1 -0 -0 0 1 -1 -0 2 1 1 -0 -1 0 0 -2 -1 1 2 2 0 0 -1 -2
Height
5879 5879 5880 5879 5879 5878 5878 5878 5877 5878 5877 5877 5876 5876 5875 5874 5873 5872 5871 5870 5869 5868 5867 5866 5865 5863 5862 5861 5861 5860 5859 5858 5858 5857 5857 5856 5856 5855 5855 5854 5854 5853 5853
5879 5879 5879 5879 5878 5878 5878 5878 5878 5878 5877 5877 5876 5876 5875 5874 5873 5872 5871 5870 5868 5867 5866 5865 5864 5863 5862 5860 5859 5858 5857 5856 5855 5854 5854 5853 5852 5852 5851 5850 5850 5850 5849
5878 5878 5879 5879 5878 5877 5877 5877 5877 5877 5877 5877 5876 5875 5875 5874 5873 5872 5870 5869 5867 5866 5865 5864 5862 5861 5860 5859 5858 5857 5856 5855 5854 5853 5851 5850 5849 5848 5847 5847 5846 5846 5845
5877 5878 5878 5878 5878 5877 5877 5877 5877 5877 5877 5876 5875 5875 5874 5872 5871 5870 5869 5868 5866 5865 5863 5862 5861 5859 5858 5856 5855 5854 5853 5852 5851 5850 5849 5848 5847 5846 5845 5844 5843 5842 5842
5876 5876 5877 5877 5877 5877 5876 5877 5876 5876 5876 5876 5875 5873 5872 5871 5870 5868 5868 5866 5865 5863 5862 5860 5858 5857 5855 5853 5852 5850 5849 5848 5847 5846 5845 5844 5843 5842 5841 5840 5839 5838 5838
5874 5875 5875 5876 5876 5876 5876 5876 5876 5875 5875 5874 5873 5872 5871 5870 5868 5867 5866 5864 5862 5861 5859 5857 5855 5854 5852 5850 5849 5847 5845 5844 5842 5841 5840 5839 5838 5837 5836 5834 5833 5833 5832
5873 5873 5874 5874 5875 5875 5875 5875 5874 5874 5873 5873 5872 5871 5869 5867 5866 5865 5863 5861 5859 5857 5855 5853 5852 5850 5848 5846 5845 5843 5842 5840 5838 5836 5835 5834 5833 5832 5830 5829 5828 5827 5826
5870 5871 5872 5873 5873 5874 5873 5873 5873 5872 5872 5871 5870 5869 5867 5865 5863 5862 5860 5858 5856 5854 5851 5849 5847 5845 5844 5842 5840 5838 5836 5835 5833 5831 5830 5829 5827 5826 5825 5824 5823 5822 5820
5868 5869 5870 5871 5871 5872 5872 5871 5871 5871 5870 5869 5868 5866 5864 5862 5861 5859 5857 5855 5853 5850 5848 5845 5843 5841 5839 5837 5835 5833 5831 5830 5827 5825 5824 5823 5822 5820 5819 5818 5816 5815 5814
5866 5867 5868 5869 5870 5869 5870 5870 5869 5868 5868 5867 5865 5864 5862 5860 5857 5855 5853 5851 5848 5846 5843 5841 5838 5836 5833 5831 5830 5828 5826 5824 5822 5820 5819 5817 5816 5814 5813 5812 5810 5808 5807
5864 5865 5866 5867 5868 5868 5868 5867 5867 5866 5865 5864 5862 5861 5859 5857 5853 5851 5848 5846 5844 5841 5839 5836 5834 5832 5829 5826 5824 5822 5820 5817 5815 5814 5812 5811 5810 5807 5806 5805 5802 5800 5799
5861 5863 5864 5865 5866 5865 5865 5865 5864 5863 5863 5862 5860 5858 5856 5853 5849 5846 5844 5841 5839 5837 5835 5832 5830 5827 5824 5822 5819 5816 5813 5811 5808 5805 5804 5803 5801 5799 5797 5795 5794 5791 5790
5858 5860 5862 5863 5863 5863 5863 5862 5861 5861 5860 5858 5856 5854 5851 5848 5845 5842 5840 5837 5835 5833 5830 5827 5824 5821 5818 5815 5812 5809 5806 5803 5800 5797 5795 5794 5789 5789 5787 5785 5783 5782 5780
5856 5858 5859 5860 5860 5860 5860 5859 5859 5857 5856 5855 5853 5850 5848 5844 5841 5838 5835 5833 5830 5827 5824 5821 5818 5814 5811 5808 5804 5801 5797 5794 5791 5788 5786 5784 5781 5778 5776 5775 5773 5771 5770
5853 5855 5856 5857 5857 5857 5856 5856 5855 5854 5853 5851 5849 5847 5844 5840 5837 5833 5830 5827 5824 5821 5817 5813 5810 5806 5803 5799 5795 5791 5787 5784 5780 5778 5776 5774 5771 5769 5767 5764 5762 5761 5760
5849 5852 5852 5853 5853 5854 5854 5853 5852 5851 5849 5847 5844 5842 5839 5835 5831 5828 5824 5821 5817 5814 5809 5805 5802 5798 5794 5790 5785 5781 5777 5773 5770 5768 5765 5764 5761 5759 5757 5756 5754 5754 5753
5847 5848 5849 5849 5850 5851 5850 5849 5848 5846 5844 5842 5839 5836 5833 5829 5825 5821 5818 5814 5810 5806 5802 5797 5793 5789 5785 5780 5775 5771 5767 5763 5760 5758 5755 5754 5753 5751 5750 5749 5748 5747 5747
5844 5845 5846 5846 5847 5847 5846 5845 5843 5841 5839 5836 5833 5829 5825 5821 5818 5814 5810 5806 5802 5798 5793 5789 5784 5779 5775 5770 5765 5761 5756 5753 5751 5749 5747 5746 5745 5744 5743 5743 5742 5741 5740
5840 5841 5842 5843 5843 5843 5842 5840 5839 5836 5833 5829 5826 5822 5818 5814 5810 5806 5802 5797 5793 5789 5784 5780 5775 5771 5765 5761 5756 5750 5744 5741 5740 5740 5739 5738 5737 5736 5736 5735 5735 5734 5733
5837 5837 5838 5838 5839 5838 5837 5835 5833 5830 5827 5823 5819 5815 5810 5806 5802 5797 5793 5789 5784 5780 5775 5771 5766 5762 5758 5753 5746 5736 5726 5724 5730 5732 5732 5731 5730 5729 5729 5729 5729 5729 5728
5833 5833 5833 5834 5833 5832 5831 5828 5826 5823 5819 5815 5810 5806 5802 5798 5793 5789 5784 5780 5775 5771 5767 5763 5758 5754 5751 5745 5738 5728 5719 5717 5721 5724 5725 5725 5724 5723 5724 5725 5725 5725 5724
5829 5829 5829 5828 5827 5825 5823 5820 5817 5814 5810 5806 5802 5798 5793 5789 5784 5780 5776 5772 5768 5764 5760 5755 5751 5747 5744 5739 5732 5725 5720 5719 5718 5719 5720 5720 5720 5720 5721 5721 5721 5721 5720
5824 5823 5822 5821 5820 5817 5815 5812 5808 5805 5801 5797 5793 5789 5785 5780 5776 5771 5767 5764 5760 5756 5752 5748 5745 5741 5737 5734 5728 5723 5719 5718 5717 5717 5717 5718 5717 5717 5717 5717 5717 5716 5715
5819 5818 5816 5814 5812 5809 5806 5803 5799 5796 5792 5788 5783 5779 5774 5769 5765 5761 5757 5755 5752 5749 5745 5742 5739 5735 5732 5729 5725 5721 5718 5717 5716 5716 5716 5715 5715 5714 5714 5714 5713 5711 5710
5811 5810 5808 5806 5804 5801 5797 5794 5790 5786 5782 5778 5773 5768 5762 5758 5754 5751 5747 5745 5744 5741 5738 5735 5733 5730 5727 5724 5722 5719 5716 5715 5714 5712 5712 5713 5712 5711 5711 5710 5708 5707 5707
5802 5801 5800 5798 5794 5791 5788 5784 5781 5777 5773 5768 5763 5757 5750 5743 5739 5738 5736 5735 5734 5732 5730 5729 5726 5724 5722 5719 5717 5715 5713 5712 5711 5709 5708 5708 5708 5708 5707 5706 5704 5703 5702